Regional Weather Roundup
Issued by NWS Albany, NY

Home | Current Version | Previous Version | Graphics & Text | Print | Product List | Glossary Off
Versions: 1 2 3 4 5 6 7 8 9 10 11 12 13 14 15 16 17 18 19 20 21 22 23 24 25 26 27 28 29 30 31 32 33 34 35 36 37 38 39 40 41 42 43 44 45 46 47 48 49 50

644
ASUS41 KALY 252110
RWRALY

NEW YORK STATE HOURLY WEATHER ROUNDUP
NATIONAL WEATHER SERVICE ALBANY NY
400 PM EST SAT FEB 25 2017

NOTE: "FAIR" INDICATES FEW OR NO CLOUDS BELOW 12,000 FEET WITH NO
SIGNIFICANT WEATHER AND/OR NO OBSTRUCTIONS TO VISIBILITY.

NYZ032-033-038>043-046>054-057>066-NYZ062>081-082-084-252200-
EAST


CITY           SKY/WX    TMP DP  RH WIND       PRES   REMARKS
ALBANY         PTSUNNY   67  50  54 S22G39    29.41F
GLENS FALLS    CLOUDY    67  49  52 S20G30    29.38F
POUGHKEEPSIE   CLOUDY    64  54  69 SE13G25   29.44F
NEWBURGH       PTSUNNY   64  57  77 S17G29    29.46F
MONTGOMERY     CLOUDY    65  54  67 S18G28    29.42F
WHITE PLAINS   PTSUNNY   62  56  80 SE10      29.49F
ISLIP          PTSUNNY   59  56  89 S13       29.54F
NEW YORK CITY  PTSUNNY   63  55  75 S20G31    29.47F
CENTRAL PARK   MOSUNNY   60  55  83 S12G24    29.50F
$$

NYZ005>009-017-018-044>046-055-056-252200-
CENTRAL


CITY           SKY/WX    TMP DP  RH WIND       PRES   REMARKS
FULTON         LGT RAIN  39  36  89 W9        29.54S FOG     WCI  33
SYRACUSE       RAIN      40  40 100 W14G26    29.58R FOG     WCI  32
ROME           RAIN      40  39  97 NW22G29   29.54F FOG     WCI  30
ELMIRA         RAIN      43  37  79 VRB7G17   29.53R
BINGHAMTON     LGT RAIN  41  39  93 NW13G23   29.47R FOG
MONTICELLO     PTSUNNY  N/A N/A N/A SE14G20   29.43F
$$

NYZ026>034-041>043-087-252200-
NORTH


CITY           SKY/WX    TMP DP  RH WIND       PRES   REMARKS
WATERTOWN      RAIN      39  38  96 SW12G20   29.54R FOG     WCI  32
FORT DRUM      NOT AVBL
OGDENSBURG     RAIN      43  42  95 SW16G28   29.47R
MASSENA        RAIN      48  46  93 SW14      29.45R FOG
SARANAC LAKE   HVY RAIN  45  44  97 W7G18     29.44R FOG
PLATTSBURGH    HVY RAIN  57  51  80 W14G31    29.39R
$$

NYZ001>004-010>016-019>021-085-252200-
WEST


CITY           SKY/WX    TMP DP  RH WIND       PRES   REMARKS
NIAGARA FALLS  CLOUDY    44  30  57 W23G32    29.54R
BUFFALO        CLOUDY    38  31  76 SW24G38   29.58R WCI  27
DUNKIRK        FLURRIES  36  29  75 SW22G37   29.63R WCI  25
JAMESTOWN      CLOUDY    32  23  69 W18G33    29.60R WCI  20
WELLSVILLE     LGT RAIN  42  37  82 NW9       29.52R
ROCHESTER      CLOUDY    43  29  57 W28G40    29.55R
PENN YAN       CLOUDY    41  34  76 W6        29.55R
$$

             KEY
       WCI = WIND CHILL INDEX
       VSB = VISIBILITY
       HX  = HEAT INDEX
$$




USA.gov is the U.S. government's official web portal to all federal, state and local government web resources and services.